COSMOS 2251 DEB, 34856

Orbit data source: Space-Track

COSMOS 2251 DEB, 34856 is space debris in LEO originally from a launch on Wed, 16 Jun 1993 UTC launched from the Plesetsk Missile And Space Complex (PKMTR). The debris from Iridium 33, an American commercial communications satellite, has been tracked extensively since its accidental collision with the defunct Russian satellite Cosmos 2251 in 2009. This event, occurring at high speed in low Earth orbit (LEO), generated thousands of pieces of space debris, significantly increasing the risk of further collisions. The Iridium 33 debris cloud has impacted space traffic management and orbital debris mitigation strategies, making it a subject of ongoing study in space situational awareness.

Loading next visibility...
Identifier
34856, 1993-036ACA
Orbit
LEO
Country
Flag of CISCIS
Related business
Manufacturer
Unknown
Mission
Spacecraft
Bus & Motor
Unknown
Mass
Unknown
Launch date (UTC)
1993-06-16 (33 years ago)
Launch vehicle
Unknown
Launch site
Plesetsk Missile And Space Complex (PKMTR)
Object type
Payload
Rocket body
Debris
Shape & HBR
Unknown shape, 0.1 m
Radar Cross Section
Small (<0.1 m²)

Expand to show TLE details & history
Last TLE update: 13 hours ago

TLE from 13 hours ago
0 COSMOS 2251 DEB
1 34856U 93036ACA 26067.98097837  .00037834  00000-0  22116-2 0  9998
2 34856  73.9913 266.7671 0029416  19.8743 130.0656 15.11336738904124
Epoch: 2026-03-08T23:32Z
TLE epoch observation values (Epoch: 2026-03-08T23:32:36.531Z)
Latitude
28.59172°
Longitude
-82.01244°
Altitude
548.526 km
Speed
7.583 km/s
True Right ascension
05h 11m 16s
True Declination
28° 26' 35"
Sunlit
Object was in daylight at epoch
Visualization orbit readout
Latitude
Unknown
Longitude
Unknown
Altitude
Unknown
Speed
Unknown
Apparent Right ascension
Unknown
Apparent Declination
Unknown
Sunlit
N/A
Visualization observer readout
Local Sidereal Time
17:02:23
Azimuth
Unknown
Elevation
Unknown
Doppler factor
Unknown
Orbital elements
Apogee altitude
549.988 km
Perigee altitude
509.348 km
Semi-major axis
6,907.805 km
Eccentricity
0.00294
Inclination
73.9913°
RAAN
266.7671°
Arg. of periapsis
19.8743°
True anomaly
130.32296°
Mean anomaly
130.0656°
Eccentric anomaly
130.19434°
Mean motion
3.78036 °/min
Orbital period
95.23 mins
BSTAR
0.0022116
Loading maneuver chart data...
Computing Atmospheric mass density...

Documentation

Showing up to 5 results
|